National Oceanic Atmosphere Administration National Weather Service Headquarters National Weather Service Headquarters
NOAA logo WFO Anchorage Scalable transition graphic NWS logo
Transition from title bar to navgation bar   Aviation Weather 17 AKDT 
blankspace Home   |   Mobile   |   Social Media   |   Mesonet   |   Surface Map   |   Radar   |   Submit Storm Reports   |   News =01 GMT 

LocalForecast by City, St or Zip Code

spacer

Forecasts/Products
  Public
  Forecast Discussion
    - With Glossary
  Aviation
  Marine
  Hydrology(RFC)
  Rivers & Lakes AHPS
  Ice Desk
  TV Weather
  Fire Weather
  Avalanche
  Travel 511
  Graphical
  xml logo RSS Feeds
  Marine FTPMail

spacer

Data
  Mesonet
  Model Graphics
  Local Model
  Observations
  Marine Obs
  Satellite/Radar
  Vent Factor
  Soaring Index
  Weather Links

spacer

Climate
  PAFC Climate
  Interactive Climate
  PAFC Records
  Local
  National
  More

spacer

Outreach
  About Us
  Community Outreach
  Kids' Page
  Tour/Speaker Request
  Weather Classroom
  Social Media

spacer

Reports
  COOP Observers
  Local Storm Reports
  Spotter Page
  Submit a Storm Report

spacer

Miscellaneous
  Archived Alaska Weather Stories
  Student Career Opportunities
  Research Papers

spacer

Print Friendly/
Low Bandwidth

  Public Forecasts
  Marine Forecasts

spacer

Contact Us
  mailto pafcweb

spacer

Facebook Follow the National Weather Service in Alaska on Twitter
USA.gov is the U.S. government's official web portal to all federal, state and local government web resources and services.


** Important notice for upcoming changes to NWS Anchorage web site ** Read more...
 ICAO ID:   AAWU Graphics

Internet access to TAFs and METAR observations is for planning purposes only. We can not guarantee the timeliness of internet products. Before flying please get a formal pilot briefing (1-800-992-7433) and ALWAYS file a Flight Plan!Pilot briefings are provided to licensed aircraft pilots, ONLY! Others may not use the above number to obtain weather information.

Check out the Key to TAFs and METARs for help with decoding the information.

A 12 hour summary of TAFs can be found here.

PABI TAF
PABI 022202Z 0222/0404 22009KT 9999 VCSH BKN050 OVC130 610505
      QNH2952INS
      BECMG 0300/0301 22012KT 8000 -SHRA BKN040 BKN090 610408
      QNH2954INS
      TEMPO 0300/0304 18015G25KT
      BECMG 0312/0313 VRB06KT 9999 NSW BKN060 OVC080 610604
      QNH2975INS TX14/0322Z TN05/0318Z=


METAR PABI 030053Z 24008KT 10SM -RA BKN036 OVC046 08/02 A2958 RMK AO2
     RAB44 SLP030 WATERFOWL VC P0000 T00830017=
METAR PABI 022353Z VRB04KT 10SM FEW020 FEW042 OVC055 09/00 A2957 RMK AO2
     SLP028 SHRA DSNT ALQDS WATERFOWL VC T00890000 10100 20050
     53008=
METAR PABI 022353Z VRB04KT 10SM FEW020 FEW042 OVC055 09/00 A2957=
METAR PABI 022253Z VRB03KT 10SM FEW030 FEW046 OVC055 09/M01 A2955
     RMK AO2 SLP021 SHRA DSNT ALQDS OCNL WATERFOWL VC
     T00891006=
METAR PABI 022253Z VRB03KT 10SM FEW030 FEW046 OVC055 09/M01 A2955=
METAR PABI 022153Z 02003KT 10SM FEW040 BKN055 OVC130 09/M01 A2954=


National Weather Service
Anchorage Forecast Office
6930 Sand Lake Road
Anchorage, Ak 99502
(907) 266-5105 M-F/7-5pm
About Us
Career Opportunities
Glossary
Disclaimer
Privacy Policy
Credits
Alaska Weather Information Line:
1-800-472-0391